Location: Unspecified
(0.0000°N, 0.0000°E)
Time: 06:27:42
(UTC+02:00)

Tiros 1 despin weight - Visible Passes

Search period start: 25 August 2016 00:00
Search period end: 04 September 2016 00:00
Orbit: 596 x 645 km, 48.2° (Epoch: 24 August)

Date Brightness Start Highest point End Pass type
(mag) Time Alt. Az. Time Alt. Az. Time Alt. Az.
28 Aug ? 21:28:26 10° NNE 21:29:03 12° NNE 21:29:03 12° NNE visible
29 Aug ? 21:43:56 10° NNW 21:46:11 25° N 21:46:11 25° N visible
30 Aug ? 22:00:48 10° NW 22:03:26 34° NW 22:03:26 34° NW visible
31 Aug ? 20:37:29 10° N 20:41:05 23° NE 20:43:39 14° E visible
31 Aug ? 22:18:44 10° WNW 22:20:50 21° W 22:20:50 21° W visible
01 Sep ? 20:53:45 10° NNW 20:58:17 63° NE 21:01:08 22° SE visible
02 Sep ? 21:11:05 10° WNW 21:15:27 44° SW 21:18:41 17° SSE visible
03 Sep ? 21:29:42 10° W 21:32:39 17° SW 21:35:34 10° S visible
